QTR6A VOHS-OTHH

Flight info

Callsign QTR6A
Flight time N/A
Altitude 40000
Route TAMIV5 GODEP W28 BBB V2 SUGID N571 PARAR M628 TULBU N563 SODEX/N0484F340 N563 UMIBU P899 TOVOX
Aircraft B788/H-SDE1E2E3FGHIJ2J3J4J5M1RWXY/LB1D1

Departure

Time 2026-04-30 13:06
Airport Rajiv Gandhi International Airport (VOHS)

Arrival

Time N/A
Airport Hamad International Airport (OTHH)
Time Latitude Longitude Altitude Speed Heading
2026-04-30 12:43 17.23419 78.42573 1986 ft 0 kts 359°
2026-04-30 12:54 17.23407 78.42573 1987 ft 4 kts 359°
2026-04-30 12:54 17.23380 78.42573 1985 ft 4 kts 359°
2026-04-30 12:55 17.23358 78.42574 1986 ft 3 kts
2026-04-30 12:55 17.23335 78.42568 1985 ft 4 kts 35°
2026-04-30 12:55 17.23326 78.42557 1986 ft 4 kts 67°
2026-04-30 12:55 17.23324 78.42546 1986 ft 4 kts 78°
2026-04-30 12:56 17.23324 78.42552 1986 ft 0 kts 89°
2026-04-30 12:58 17.23324 78.42556 1986 ft 2 kts 89°
2026-04-30 12:58 17.23324 78.42580 1988 ft 5 kts 89°
2026-04-30 12:58 17.23325 78.42632 1989 ft 9 kts 89°
2026-04-30 12:59 17.23316 78.42708 1988 ft 10 kts 133°
2026-04-30 12:59 17.23249 78.42746 1986 ft 12 kts 121°
2026-04-30 12:59 17.23240 78.42841 1987 ft 15 kts 89°
2026-04-30 12:59 17.23242 78.42966 1985 ft 19 kts 89°
2026-04-30 13:00 17.23245 78.43121 1985 ft 23 kts 89°
2026-04-30 13:00 17.23248 78.43303 1985 ft 27 kts 89°
2026-04-30 13:00 17.23250 78.43508 1985 ft 30 kts 89°
2026-04-30 13:00 17.23253 78.43724 1985 ft 31 kts 89°
2026-04-30 13:01 17.23257 78.43931 1989 ft 21 kts 89°
2026-04-30 13:01 17.23260 78.44098 1989 ft 25 kts 89°
2026-04-30 13:01 17.23261 78.44249 1989 ft 15 kts 89°
2026-04-30 13:01 17.23249 78.44352 1989 ft 13 kts 137°
2026-04-30 13:02 17.23154 78.44369 1990 ft 16 kts 180°
2026-04-30 13:02 17.23100 78.44442 1989 ft 15 kts 87°
2026-04-30 13:02 17.23104 78.44575 1986 ft 22 kts 90°
2026-04-30 13:02 17.23106 78.44756 1985 ft 28 kts 89°
2026-04-30 13:03 17.23110 78.44968 1988 ft 29 kts 88°
2026-04-30 13:03 17.23115 78.45179 1988 ft 27 kts 88°
2026-04-30 13:03 17.23095 78.45297 1986 ft 11 kts 135°
2026-04-30 13:03 17.23020 78.45316 1986 ft 12 kts 189°
2026-04-30 13:04 17.22943 78.45277 1987 ft 12 kts 212°
2026-04-30 13:04 17.22909 78.45206 1988 ft 11 kts 269°
2026-04-30 13:04 17.22908 78.45055 1987 ft 41 kts 270°
2026-04-30 13:04 17.22901 78.44589 1988 ft 89 kts 269°
2026-04-30 13:05 17.22890 78.43785 1986 ft 131 kts 269°
2026-04-30 13:05 17.22874 78.42695 1988 ft 167 kts 269°
2026-04-30 13:05 17.22859 78.41433 2407 ft 180 kts 268°
2026-04-30 13:06 17.22837 78.38838 3728 ft 179 kts 270°
2026-04-30 13:06 17.22816 78.37526 4336 ft 180 kts 270°
2026-04-30 13:06 17.22794 78.36211 4956 ft 181 kts 271°
2026-04-30 13:06 17.22774 78.34831 5369 ft 204 kts 271°
2026-04-30 13:07 17.22750 78.33240 5792 ft 233 kts 271°
2026-04-30 13:07 17.23039 78.31485 6170 ft 260 kts 290°
2026-04-30 13:07 17.23616 78.29623 6842 ft 271 kts 288°
2026-04-30 13:07 17.24157 78.27727 7809 ft 275 kts 287°
2026-04-30 13:08 17.24712 78.25793 8722 ft 279 kts 288°
2026-04-30 13:08 17.25276 78.23865 9655 ft 283 kts 287°
2026-04-30 13:08 17.25867 78.21849 10254 ft 300 kts 287°
2026-04-30 13:08 17.26503 78.19664 10472 ft 328 kts 287°
2026-04-30 13:09 17.27190 78.17297 10881 ft 346 kts 287°
2026-04-30 13:09 17.27891 78.14889 11787 ft 348 kts 287°
2026-04-30 13:09 17.28601 78.12448 12638 ft 353 kts 287°
2026-04-30 13:09 17.29318 78.09981 13513 ft 356 kts 287°
2026-04-30 13:10 17.30044 78.07482 14309 ft 361 kts 287°
2026-04-30 13:10 17.30776 78.04959 15101 ft 364 kts 287°
2026-04-30 13:10 17.31516 78.02413 15870 ft 368 kts 287°
2026-04-30 13:10 17.32265 77.99829 16612 ft 373 kts 287°
2026-04-30 13:11 17.33023 77.97216 17350 ft 377 kts 287°
2026-04-30 13:11 17.33777 77.94612 18072 ft 381 kts 287°
2026-04-30 13:11 17.34550 77.91943 18714 ft 384 kts 288°
2026-04-30 13:11 17.35328 77.89255 19363 ft 387 kts 288°
2026-04-30 13:12 17.36110 77.86552 20024 ft 390 kts 288°
2026-04-30 13:12 17.36900 77.83822 20655 ft 393 kts 288°
2026-04-30 13:12 17.37692 77.81078 21294 ft 396 kts 288°
2026-04-30 13:13 17.39298 77.75517 22487 ft 402 kts 289°
2026-04-30 13:13 17.40110 77.72704 23085 ft 405 kts 289°
2026-04-30 13:13 17.41749 77.67017 24066 ft 411 kts 289°
2026-04-30 13:14 17.42567 77.64175 24513 ft 414 kts 289°
2026-04-30 13:14 17.43400 77.61280 24957 ft 417 kts 289°
2026-04-30 13:14 17.44414 77.55222 25773 ft 427 kts 281°
2026-04-30 13:15 17.44810 77.52130 26198 ft 430 kts 281°
2026-04-30 13:15 17.45611 77.45869 27000 ft 437 kts 281°
2026-04-30 13:15 17.46015 77.42704 27388 ft 440 kts 281°
2026-04-30 13:16 17.46422 77.39515 27778 ft 443 kts 281°
2026-04-30 13:16 17.46831 77.36308 28155 ft 446 kts 281°
2026-04-30 13:16 17.47236 77.33120 28523 ft 449 kts 281°
2026-04-30 13:17 17.48066 77.26588 29241 ft 455 kts 281°
2026-04-30 13:17 17.48484 77.23286 29574 ft 458 kts 281°
2026-04-30 13:17 17.49327 77.16622 30202 ft 463 kts 281°
2026-04-30 13:18 17.49750 77.13271 30507 ft 465 kts 281°
2026-04-30 13:18 17.50599 77.06529 31093 ft 468 kts 281°
2026-04-30 13:18 17.51025 77.03144 31386 ft 470 kts 281°
2026-04-30 13:19 17.51446 76.99788 31667 ft 471 kts 281°
2026-04-30 13:19 17.51874 76.96375 31923 ft 473 kts 281°
2026-04-30 13:19 17.52301 76.92959 32189 ft 474 kts 281°
2026-04-30 13:19 17.52731 76.89524 32450 ft 476 kts 281°
2026-04-30 13:20 17.53160 76.86081 32709 ft 477 kts 281°
2026-04-30 13:20 17.53590 76.82631 32950 ft 479 kts 281°
2026-04-30 13:20 17.54022 76.79164 33199 ft 480 kts 281°
2026-04-30 13:20 17.54454 76.75688 33435 ft 482 kts 281°
2026-04-30 13:21 17.54886 76.72204 33721 ft 482 kts 281°
2026-04-30 13:21 17.55317 76.68725 34051 ft 480 kts 281°
2026-04-30 13:21 17.55844 76.65287 34325 ft 478 kts 284°
2026-04-30 13:22 17.57075 76.58443 34824 ft 478 kts 283°
2026-04-30 13:22 17.57684 76.55014 35088 ft 478 kts 283°
2026-04-30 13:22 17.58896 76.48225 35618 ft 477 kts 283°
2026-04-30 13:23 17.59505 76.44809 35873 ft 477 kts 283°
2026-04-30 13:23 17.60719 76.37976 36395 ft 476 kts 283°
2026-04-30 13:24 17.61929 76.31158 36897 ft 475 kts 283°
2026-04-30 13:24 17.63136 76.24342 37417 ft 475 kts 283°
2026-04-30 13:25 17.64338 76.17539 37895 ft 474 kts 283°
2026-04-30 13:25 17.65530 76.10777 38362 ft 474 kts 283°
2026-04-30 13:26 17.67393 76.00608 38968 ft 471 kts 290°
2026-04-30 13:26 17.69903 75.94314 39295 ft 468 kts 297°
2026-04-30 13:27 17.72644 75.88113 39625 ft 469 kts 297°
2026-04-30 13:28 17.76765 75.78752 39824 ft 474 kts 296°
2026-04-30 13:28 17.80891 75.69372 39826 ft 470 kts 296°
2026-04-30 13:29 17.86336 75.56969 39824 ft 468 kts 296°
2026-04-30 13:31 17.93160 75.41390 39826 ft 471 kts 296°
2026-04-30 13:32 17.99997 75.25740 39824 ft 472 kts 296°
2026-04-30 13:33 18.05458 75.13212 39827 ft 471 kts 296°
2026-04-30 13:34 18.09536 75.03838 39836 ft 472 kts 296°
2026-04-30 13:35 18.14994 74.91270 39838 ft 472 kts 296°
2026-04-30 13:36 18.20440 74.78703 39847 ft 471 kts 296°
2026-04-30 13:36 18.24496 74.69324 39855 ft 471 kts 296°
2026-04-30 13:37 18.28613 74.59935 39857 ft 471 kts 296°